Weather History for Cherry Point, NC

Change the Weather History Date:

Monday, January 20, 2014

  Actual Average Record
Temperature  
Mean Temperature 49 °F -  
Max Temperature 61 °F 51 °F 69 °F (2001)
Min Temperature 37 °F 32 °F 19 °F (2009)
Degree Days  
Heating Degree Days 16    
Moisture  
Dew Point 33 °F    
Average Humidity 59    
Maximum Humidity 93    
Minimum Humidity 32    
Precipitation  
Precipitation 0.00 in - - ()
Sea Level Pressure  
Sea Level Pressure 29.89 in    
Wind  
Wind Speed 8 mph (SW)    
Max Wind Speed 15 mph    
Max Gust Speed 22 mph    
Visibility 10 miles    
Events      
Averages and records for this station are not official NWS values.
T = Trace of Precipitation, MM = Missing Value Source: NWS Daily Summary

Daily Weather History Graph

Daily Weather History Graph

Search for Another Location

Airport:

Trip Planner

Search our weather history database for the weather conditions in past years. The results will help you decide how hot, cold, wet, or windy it might be!

Date:

Astronomy

Jan. 20, 2014 Rise Set
Actual Time 7:13 AM EST 5:24 PM EST
Civil Twilight 6:45 AM EST 5:51 PM EST
Nautical Twilight 6:15 AM EST 6:22 PM EST
Astronomical Twilight 5:44 AM EST 6:52 PM EST
Moon 9:44 PM EST (1/20) 9:23 AM EST (1/20)
Length of Visible Light 11h 05m
Length of Day
10h 11m
Waning Gibbous, 83% of the Moon is Illuminated
Jan 20
Waning Gibbous
Jan 24
Last Quarter
Jan 30
New
Feb 6
First Quarter
Feb 14
Full

Hourly Weather History & Observations

Time (EST) Temp. Windchill Dew Point Humidity Pressure Visibility Wind Dir Wind Speed Gust Speed Precip Events Conditions
12:54 AM 39.0 °F 36.8 °F 28.9 °F 67% 29.95 in 10.0 mi SSW 3.5 mph - N/A   Clear
1:54 AM 37.9 °F 35.5 °F 28.9 °F 70% 29.94 in 10.0 mi SW 3.5 mph - N/A   Clear
2:54 AM 37.9 °F 32.7 °F 28.9 °F 70% 29.94 in 10.0 mi SSW 6.9 mph - N/A   Clear
3:54 AM 39.0 °F 32.8 °F 28.9 °F 67% 29.94 in 10.0 mi SW 9.2 mph - N/A   Clear
4:54 AM 37.9 °F 31.5 °F 28.9 °F 70% 29.94 in 10.0 mi SW 9.2 mph - N/A   Clear
5:54 AM 39.0 °F 32.8 °F 28.9 °F 67% 29.94 in 10.0 mi SW 9.2 mph - N/A   Clear
6:54 AM 41.0 °F 34.3 °F 28.0 °F 60% 29.94 in 10.0 mi SW 11.5 mph - N/A   Clear
7:54 AM 42.1 °F 36.6 °F 28.0 °F 58% 29.92 in 10.0 mi SSW 9.2 mph - N/A   Clear
8:54 AM 46.0 °F 39.9 °F 30.9 °F 56% 29.93 in 10.0 mi WSW 13.8 mph - N/A   Clear
9:54 AM 50.0 °F - 28.9 °F 44% 29.95 in 10.0 mi SW 15.0 mph 21.9 mph N/A   Clear
10:54 AM 53.1 °F - 28.0 °F 38% 29.92 in 10.0 mi SSW 12.7 mph - N/A   Clear
11:54 AM 57.0 °F - 28.0 °F 33% 29.87 in 10.0 mi SW 12.7 mph 19.6 mph N/A   Clear
12:54 PM 59.0 °F - 30.9 °F 35% 29.84 in 10.0 mi SW 12.7 mph - N/A   Clear
1:54 PM 60.1 °F - 30.0 °F 32% 29.82 in 10.0 mi SW 9.2 mph - N/A   Clear
2:54 PM 61.0 °F - 32.0 °F 34% 29.81 in 10.0 mi SW 12.7 mph - N/A   Clear
3:54 PM 59.0 °F - 36.0 °F 42% 29.82 in 10.0 mi South 8.1 mph - N/A   Clear
4:54 PM 55.9 °F - 37.9 °F 51% 29.83 in 10.0 mi SSW 9.2 mph - N/A   Partly Cloudy
5:54 PM 52.0 °F - 39.9 °F 63% 29.85 in 10.0 mi SSW 6.9 mph - N/A   Partly Cloudy
6:54 PM 50.0 °F - 39.9 °F 68% 29.87 in 10.0 mi SW 6.9 mph - N/A   Clear
7:54 PM 48.9 °F - 39.0 °F 69% 29.89 in 10.0 mi SW 6.9 mph - N/A   Clear
8:54 PM 48.0 °F - 39.9 °F 74% 29.90 in 10.0 mi SSW 4.6 mph - N/A   Clear
9:54 PM 46.9 °F - 41.0 °F 80% 29.90 in 10.0 mi SSW 4.6 mph - N/A   Clear
10:54 PM 41.0 °F 39.0 °F 37.0 °F 86% 29.88 in 10.0 mi South 3.5 mph - N/A   Clear
11:54 PM 37.0 °F 34.5 °F 35.1 °F 93% 29.86 in 10.0 mi South 3.5 mph - N/A   Clear